Cloud_Cover
0 0 0 0 0 0 0 0 0 0 0 0 0 0 0 0 0 0 2 5 2 66 100 29 100 100 100 100 100 95 5 5
0 0 0 0 0 0 0 0 4 0 0 0 0 0 0 0 0 0 0 0 5 0 29 99 84 100 100 100 100 100 79 5
4 4 0 0 0 1 0 3 5 1 1 1 0 0 0 0 0 0 0 0 0 0 2 5 5 57 95 100 94 100 100 12
1 3 3 0 3 0 0 0 2 77 100 99 85 13 0 0 0 0 0 0 0 0 0 0 90 34 76 81 100 73 83 83
5 4 0 0 0 0 0 56 43 61 57 99 100 100 14 1 0 0 0 0 0 0 0 0 0 95 93 5 86 97 94 99
5 3 5 4 0 0 12 4 0 5 16 4 13 82 100 100 96 54 1 0 0 0 0 0 0 0 73 100 34 83 69 99
3 5 23 5 5 1 2 2 5 57 96 100 100 100 100 100 100 100 83 9 0 0 0 0 0 0 0 91 100 100 100 97
82 42 5 59 5 1 0 0 0 0 0 2 2 26 42 35 63 100 100 70 0 0 0 0 0 0 0 0 68 100 100 100
100 100 96 19 3 0 0 0 0 0 0 0 0 0 0 0 0 0 0 0 0 0 0 0 0 0 0 0 0 71 100 100
5 5 5 0 1 1 4 4 2 0 0 0 0 0 0 1 0 2 2 1 0 0 0 0 0 5 1 0 0 1 98 100
5 0 3 5 5 5 5 5 0 0 0 0 4 5 5 5 5 5 19 58 97 80 40 5 6 0 5 0 0 0 4 100
5 5 5 5 38 58 6 2 0 0 0 0 1 5 5 5 7 72 100 100 100 100 100 100 62 0 0 2 0 0 0 66
0 3 5 61 100 20 0 0 0 0 0 5 5 5 5 5 100 92 78 100 100 100 100 100 100 100 29 0 0 0 0 13
5 6 78 100 4 0 0 0 1 5 5 5 5 5 5 41 62 60 97 100 100 100 100 100 100 100 100 98 5 0 0 0
86 100 23 0 0 0 0 2 4 5 5 5 6 5 5 98 100 57 86 100 100 100 100 100 100 100 100 100 64 24 66 0
19 5 23 5 0 0 1 5 14 39 53 98 98 99 49 98 100 100 100 100 100 100 100 100 100 100 100 100 100 100 100 100
49 33 16 0 0 0 2 5 21 100 95 99 91 100 100 100 100 100 100 100 100 100 100 100 100 100 100 100 100 100 100 100
5 0 0 0 0 2 5 5 100 100 100 80 100 100 100 99 96 94 100 100 100 100 100 100 100 100 100 100 100 100 100 98
0 1 4 5 0 5 5 5 83 100 100 86 100 100 100 88 100 100 100 100 100 100 100 100 100 100 100 100 100 100 100 100
5 5 5 5 2 4 6 5 5 14 96 100 100 100 99 28 52 100 100 95 100 100 100 100 100 100 100 100 100 100 100 100